AFR611 TFFF-TFFR

Flight info

Callsign AFR611
Flight time 0h 33m
Altitude 14000
Route DOM2R DOM DOM2Z
Aircraft A320/M-SDE2E3FGIJ1RWY/HB1

Departure

Time 2026-05-07 13:34
Airport Martinique Aimé Césaire International Airport (TFFF)

Arrival

Time 2026-05-07 14:07
Airport Maryse Condé International Airport (TFFR)
Time Latitude Longitude Altitude Speed Heading
2026-05-07 13:14 14.59442 -60.99970 21 ft 0 kts
2026-05-07 13:22 14.59441 -60.99971 21 ft 4 kts
2026-05-07 13:22 14.59425 -60.99974 18 ft 4 kts
2026-05-07 13:22 14.59400 -60.99971 18 ft 4 kts 329°
2026-05-07 13:23 14.59387 -60.99961 19 ft 0 kts 309°
2026-05-07 13:27 14.59388 -60.99962 19 ft 1 kts 307°
2026-05-07 13:27 14.59387 -60.99970 19 ft 4 kts 269°
2026-05-07 13:27 14.59371 -61.00005 20 ft 5 kts 237°
2026-05-07 13:27 14.59351 -61.00029 20 ft 4 kts 223°
2026-05-07 13:28 14.59330 -61.00041 19 ft 6 kts 201°
2026-05-07 13:28 14.59275 -61.00037 20 ft 9 kts 171°
2026-05-07 13:28 14.59218 -61.00026 19 ft 8 kts 169°
2026-05-07 13:28 14.59164 -61.00034 18 ft 8 kts 222°
2026-05-07 13:29 14.59139 -61.00131 17 ft 18 kts 260°
2026-05-07 13:29 14.59116 -61.00264 16 ft 20 kts 260°
2026-05-07 13:29 14.59093 -61.00412 15 ft 22 kts 259°
2026-05-07 13:29 14.59063 -61.00576 16 ft 24 kts 260°
2026-05-07 13:30 14.59035 -61.00736 21 ft 21 kts 260°
2026-05-07 13:30 14.59012 -61.00875 22 ft 19 kts 260°
2026-05-07 13:30 14.58989 -61.01013 24 ft 22 kts 260°
2026-05-07 13:30 14.58964 -61.01157 25 ft 19 kts 260°
2026-05-07 13:31 14.58942 -61.01285 25 ft 18 kts 260°
2026-05-07 13:31 14.58921 -61.01409 23 ft 18 kts 260°
2026-05-07 13:31 14.58900 -61.01533 22 ft 17 kts 261°
2026-05-07 13:31 14.58879 -61.01656 19 ft 18 kts 260°
2026-05-07 13:32 14.58883 -61.01761 18 ft 13 kts 303°
2026-05-07 13:32 14.58870 -61.01824 16 ft 11 kts 182°
2026-05-07 13:32 14.58856 -61.01782 16 ft 0 kts 80°
2026-05-07 13:32 14.58856 -61.01781 16 ft 0 kts 80°
2026-05-07 13:33 14.58859 -61.01765 18 ft 19 kts 80°
2026-05-07 13:33 14.58930 -61.01354 24 ft 93 kts 80°
2026-05-07 13:33 14.59080 -61.00487 31 ft 148 kts 78°
2026-05-07 13:33 14.59281 -60.99417 593 ft 156 kts 77°
2026-05-07 13:34 14.59515 -60.98298 1185 ft 162 kts 77°
2026-05-07 13:34 14.59907 -60.96061 2660 ft 158 kts 78°
2026-05-07 13:34 14.60084 -60.94942 3336 ft 161 kts 78°
2026-05-07 13:35 14.60280 -60.93726 3673 ft 183 kts 78°
2026-05-07 13:35 14.60506 -60.92349 3984 ft 207 kts 78°
2026-05-07 13:35 14.60763 -60.90794 4358 ft 232 kts 79°
2026-05-07 13:35 14.61297 -60.89156 4833 ft 254 kts 54°
2026-05-07 13:36 14.62728 -60.88049 5486 ft 267 kts 18°
2026-05-07 13:36 14.64595 -60.87966 6305 ft 275 kts 348°
2026-05-07 13:36 14.66441 -60.88543 7160 ft 279 kts 339°
2026-05-07 13:36 14.68262 -60.89279 8027 ft 283 kts 339°
2026-05-07 13:37 14.70099 -60.90026 8908 ft 285 kts 339°
2026-05-07 13:37 14.71954 -60.90775 9800 ft 287 kts 341°
2026-05-07 13:37 14.73896 -60.91364 10415 ft 299 kts 347°
2026-05-07 13:37 14.76009 -60.91825 10715 ft 320 kts 350°
2026-05-07 13:38 14.78236 -60.92231 11310 ft 328 kts 351°
2026-05-07 13:38 14.80507 -60.92631 12017 ft 333 kts 351°
2026-05-07 13:38 14.82777 -60.93046 12731 ft 337 kts 351°
2026-05-07 13:38 14.85091 -60.93490 13502 ft 340 kts 351°
2026-05-07 13:39 14.87429 -60.93957 13935 ft 344 kts 349°
2026-05-07 13:39 14.89783 -60.94441 14052 ft 343 kts 349°
2026-05-07 13:39 14.92074 -60.94921 14084 ft 331 kts 350°
2026-05-07 13:39 14.94278 -60.95570 14086 ft 330 kts 339°
2026-05-07 13:40 14.96327 -60.96644 14085 ft 331 kts 333°
2026-05-07 13:40 14.98350 -60.97780 14085 ft 331 kts 333°
2026-05-07 13:40 15.00367 -60.98907 14083 ft 329 kts 333°
2026-05-07 13:40 15.02387 -61.00033 14088 ft 330 kts 333°
2026-05-07 13:41 15.04409 -61.01161 14086 ft 331 kts 333°
2026-05-07 13:41 15.06434 -61.02290 14086 ft 330 kts 333°
2026-05-07 13:41 15.08454 -61.03421 14087 ft 330 kts 333°
2026-05-07 13:41 15.10468 -61.04546 14079 ft 329 kts 334°
2026-05-07 13:42 15.12483 -61.05670 14085 ft 329 kts 333°
2026-05-07 13:42 15.14500 -61.06796 14086 ft 329 kts 333°
2026-05-07 13:42 15.16515 -61.07925 14089 ft 329 kts 333°
2026-05-07 13:42 15.18528 -61.09054 14089 ft 329 kts 332°
2026-05-07 13:43 15.20541 -61.10181 14084 ft 329 kts 333°
2026-05-07 13:43 15.22559 -61.11310 14079 ft 330 kts 333°
2026-05-07 13:43 15.24576 -61.12439 14081 ft 329 kts 334°
2026-05-07 13:43 15.26590 -61.13565 14086 ft 329 kts 333°
2026-05-07 13:44 15.28605 -61.14692 14082 ft 329 kts 333°
2026-05-07 13:44 15.30618 -61.15820 14076 ft 329 kts 333°
2026-05-07 13:44 15.32629 -61.16948 14076 ft 329 kts 333°
2026-05-07 13:44 15.34645 -61.18080 14079 ft 329 kts 333°
2026-05-07 13:45 15.36655 -61.19209 14080 ft 329 kts 332°
2026-05-07 13:45 15.38668 -61.20338 14074 ft 329 kts 333°
2026-05-07 13:45 15.40684 -61.21468 14075 ft 329 kts 333°
2026-05-07 13:45 15.42700 -61.22599 14076 ft 329 kts 333°
2026-05-07 13:46 15.44715 -61.23727 14075 ft 329 kts 333°
2026-05-07 13:46 15.46730 -61.24856 14074 ft 329 kts 332°
2026-05-07 13:46 15.48747 -61.25987 14143 ft 330 kts 332°
2026-05-07 13:46 15.50764 -61.27122 14146 ft 330 kts 333°
2026-05-07 13:47 15.52777 -61.28258 14145 ft 330 kts 333°
2026-05-07 13:47 15.54716 -61.29531 14146 ft 331 kts 322°
2026-05-07 13:47 15.56350 -61.31216 14143 ft 333 kts 310°
2026-05-07 13:47 15.57778 -61.33105 14139 ft 333 kts 310°
2026-05-07 13:48 15.59210 -61.34994 14148 ft 333 kts 310°
2026-05-07 13:48 15.60644 -61.36884 14146 ft 333 kts 310°
2026-05-07 13:48 15.62078 -61.38771 14143 ft 333 kts 310°
2026-05-07 13:48 15.63510 -61.40655 14140 ft 332 kts 310°
2026-05-07 13:49 15.64940 -61.42538 14135 ft 332 kts 310°
2026-05-07 13:49 15.66348 -61.44394 14129 ft 332 kts 310°
2026-05-07 13:49 15.67774 -61.46276 14120 ft 332 kts 310°
2026-05-07 13:49 15.69202 -61.48159 14116 ft 332 kts 310°
2026-05-07 13:50 15.70630 -61.50040 14113 ft 332 kts 309°
2026-05-07 13:50 15.72059 -61.51924 14106 ft 332 kts 309°
2026-05-07 13:50 15.73487 -61.53811 14101 ft 332 kts 310°
2026-05-07 13:50 15.74914 -61.55700 14100 ft 332 kts 310°
2026-05-07 13:51 15.76339 -61.57584 14101 ft 332 kts 309°
2026-05-07 13:51 15.77764 -61.59471 14095 ft 332 kts 310°
2026-05-07 13:51 15.79186 -61.61353 14100 ft 331 kts 310°
2026-05-07 13:51 15.80607 -61.63231 14101 ft 331 kts 309°
2026-05-07 13:52 15.82028 -61.65112 14095 ft 331 kts 310°
2026-05-07 13:52 15.83448 -61.66990 14094 ft 331 kts 309°
2026-05-07 13:52 15.84870 -61.68869 14093 ft 331 kts 309°
2026-05-07 13:52 15.86292 -61.70750 14094 ft 331 kts 309°
2026-05-07 13:53 15.87706 -61.72621 13978 ft 327 kts 310°
2026-05-07 13:53 15.89092 -61.74457 13734 ft 320 kts 309°
2026-05-07 13:53 15.90455 -61.76263 13479 ft 315 kts 310°
2026-05-07 13:53 15.91796 -61.78045 13226 ft 311 kts 310°
2026-05-07 13:54 15.93128 -61.79816 12977 ft 311 kts 309°
2026-05-07 13:54 15.94460 -61.81583 12727 ft 310 kts 310°
2026-05-07 13:54 15.95786 -61.83342 12479 ft 308 kts 310°
2026-05-07 13:54 15.97104 -61.85086 12231 ft 307 kts 310°
2026-05-07 13:55 15.98423 -61.86833 11984 ft 307 kts 310°
2026-05-07 13:55 15.99739 -61.88581 11747 ft 307 kts 309°
2026-05-07 13:55 16.01063 -61.90320 11506 ft 305 kts 313°
2026-05-07 13:55 16.02646 -61.91765 11266 ft 303 kts 328°
2026-05-07 13:56 16.04540 -61.92696 11029 ft 301 kts 344°
2026-05-07 13:56 16.06594 -61.93059 10795 ft 299 kts 359°
2026-05-07 13:56 16.08653 -61.93058 10559 ft 294 kts
2026-05-07 13:56 16.10692 -61.93054 10327 ft 293 kts
2026-05-07 13:57 16.12726 -61.93053 10095 ft 291 kts
2026-05-07 13:57 16.14745 -61.93055 9687 ft 290 kts
2026-05-07 13:57 16.16775 -61.93055 9164 ft 293 kts
2026-05-07 13:57 16.18754 -61.93054 8641 ft 284 kts
2026-05-07 13:58 16.20702 -61.93054 8140 ft 276 kts
2026-05-07 13:58 16.22595 -61.93053 7652 ft 268 kts
2026-05-07 13:58 16.24431 -61.93052 7169 ft 262 kts
2026-05-07 13:58 16.26270 -61.93052 6678 ft 266 kts
2026-05-07 13:59 16.28131 -61.92877 6022 ft 274 kts 19°
2026-05-07 13:59 16.29848 -61.91981 5304 ft 279 kts 37°
2026-05-07 13:59 16.31225 -61.90604 4654 ft 271 kts 54°
2026-05-07 13:59 16.32089 -61.88964 4480 ft 246 kts 70°
2026-05-07 14:00 16.32478 -61.87331 4423 ft 221 kts 83°
2026-05-07 14:00 16.32504 -61.85775 4371 ft 212 kts 95°
2026-05-07 14:00 16.32268 -61.84253 4326 ft 214 kts 99°
2026-05-07 14:00 16.31983 -61.82749 4278 ft 211 kts 99°
2026-05-07 14:01 16.31704 -61.81254 4234 ft 210 kts 98°
2026-05-07 14:01 16.31428 -61.79750 4184 ft 213 kts 99°
2026-05-07 14:01 16.31152 -61.78248 4129 ft 212 kts 100°
2026-05-07 14:01 16.30873 -61.76730 4086 ft 213 kts 99°
2026-05-07 14:02 16.30599 -61.75244 4000 ft 212 kts 99°
2026-05-07 14:02 16.30325 -61.73752 3780 ft 210 kts 99°
2026-05-07 14:02 16.30056 -61.72292 3513 ft 200 kts 99°
2026-05-07 14:02 16.29800 -61.70900 3259 ft 191 kts 99°
2026-05-07 14:03 16.29551 -61.69552 2998 ft 190 kts 99°
2026-05-07 14:03 16.29306 -61.68219 2732 ft 186 kts 99°
2026-05-07 14:03 16.29067 -61.66921 2506 ft 177 kts 99°
2026-05-07 14:03 16.28841 -61.65701 2246 ft 166 kts 99°
2026-05-07 14:04 16.28629 -61.64553 2017 ft 156 kts 99°
2026-05-07 14:04 16.28431 -61.63476 1815 ft 144 kts 100°
2026-05-07 14:04 16.28248 -61.62485 1614 ft 136 kts 99°
2026-05-07 14:04 16.28072 -61.61532 1432 ft 132 kts 100°
2026-05-07 14:05 16.27900 -61.60597 1250 ft 132 kts 99°
2026-05-07 14:05 16.27728 -61.59668 1063 ft 129 kts 100°
2026-05-07 14:05 16.27556 -61.58732 902 ft 134 kts 99°
2026-05-07 14:05 16.27381 -61.57784 725 ft 134 kts 99°
2026-05-07 14:06 16.27206 -61.56826 542 ft 134 kts 104°
2026-05-07 14:06 16.27036 -61.55882 362 ft 137 kts 102°
2026-05-07 14:06 16.26850 -61.54917 141 ft 134 kts 100°
2026-05-07 14:06 16.26681 -61.53995 22 ft 122 kts 101°
2026-05-07 14:07 16.26552 -61.53302 19 ft 72 kts 101°
2026-05-07 14:07 16.26488 -61.52954 19 ft 30 kts 101°
2026-05-07 14:07 16.26451 -61.52752 20 ft 27 kts 101°
2026-05-07 14:07 16.26415 -61.52563 20 ft 26 kts 101°
2026-05-07 14:08 16.26388 -61.52416 27 ft 18 kts 101°
2026-05-07 14:08 16.26365 -61.52292 26 ft 14 kts 101°
2026-05-07 14:08 16.26425 -61.52230 27 ft 14 kts 12°
2026-05-07 14:08 16.26515 -61.52212 23 ft 9 kts 11°
2026-05-07 14:09 16.26523 -61.52210 23 ft 0 kts 11°
2026-05-07 14:10 16.26526 -61.52210 23 ft 2 kts 11°
2026-05-07 14:10 16.26550 -61.52205 22 ft 5 kts 11°
2026-05-07 14:11 16.26584 -61.52198 21 ft 5 kts 11°
2026-05-07 14:11 16.26619 -61.52192 21 ft 6 kts 11°
2026-05-07 14:11 16.26675 -61.52183 21 ft 8 kts 358°
2026-05-07 14:11 16.26725 -61.52222 22 ft 11 kts 295°
2026-05-07 14:12 16.26742 -61.52296 21 ft 10 kts 281°
2026-05-07 14:12 16.26755 -61.52370 21 ft 10 kts 281°
2026-05-07 14:12 16.26764 -61.52418 24 ft 6 kts 280°
2026-05-07 14:12 16.26769 -61.52446 21 ft 4 kts 280°
2026-05-07 14:13 16.26774 -61.52472 21 ft 3 kts 280°
2026-05-07 14:13 16.26780 -61.52476 23 ft 1 kts 340°
2026-05-07 14:13 16.26793 -61.52473 21 ft 4 kts 11°
2026-05-07 14:13 16.26838 -61.52463 23 ft 5 kts 11°
2026-05-07 14:14 16.26857 -61.52459 21 ft 2 kts 11°
2026-05-07 14:14 16.26865 -61.52457 21 ft 0 kts 12°